Date,TemperatureHighF,TemperatureAvgF,TemperatureLowF,DewpointHighF,DewpointAvgF,DewpointLowF,HumidityHigh,HumidityAvg,HumidityLow,PressureMaxIn,PressureMinIn,WindSpeedMaxMPH,WindSpeedAvgMPH,GustSpeedMaxMPH,PrecipitationSumIn
2013-1-1,38,34,26,30,27,15,84,73,61,30.06,29.88,8,2,15,0.04
2013-1-2,32,26,20,19,16,13,79,65,54,30.23,30.04,7,2,19,0.00
2013-1-3,32,27,19,22,18,15,84,69,54,30.24,30.11,5,1,10,0.00
2013-1-4,36,33,31,24,23,21,71,65,59,30.13,30.01,11,3,17,0.00
2013-1-5,41,33,25,25,22,20,89,67,50,30.34,30.07,7,2,14,0.00
2013-1-6,46,37,28,32,28,24,91,73,53,30.26,30.01,8,1,12,0.00
2013-1-7,44,35,23,33,27,21,93,73,50,30.43,30.10,7,1,11,0.00
2013-1-8,47,30,20,33,25,18,97,83,56,30.45,30.37,4,0,8,0.00
2013-1-9,45,34,22,39,30,20,97,87,65,30.43,30.19,7,0,16,0.00
2013-1-10,48,40,30,33,28,25,87,63,46,30.57,30.29,8,2,13,0.00
2013-1-11,43,37,29,42,33,26,98,86,69,30.57,30.12,5,0,13,0.13
2013-1-12,46,42,38,44,41,37,99,97,92,30.20,30.11,3,0,7,0.00
2013-1-13,46,44,42,46,44,41,99,99,98,30.18,30.03,3,0,6,0.01
2013-1-14,55,48,38,52,43,32,100,85,54,30.32,29.93,6,1,11,0.09
2013-1-15,38,36,33,35,30,28,94,82,71,30.38,30.23,9,0,9,0.13
2013-1-16,34,32,32,33,31,30,98,96,93,30.24,29.86,4,0,9,0.43
2013-1-17,42,37,33,34,31,26,98,78,62,30.12,29.95,8,1,17,0.16
2013-1-18,34,27,19,28,15,7,84,62,40,30.50,30.04,12,2,16,0.00
2013-1-19,49,34,19,30,25,14,88,70,44,30.44,29.95,10,1,15,0.02
2013-1-20,52,39,28,33,24,13,90,58,28,30.08,29.74,12,3,20,0.00
2013-1-21,30,26,20,20,14,10,75,59,49,30.12,29.89,6,1,12,0.00
2013-1-22,24,17,12,10,1,-5,60,49,38,30.27,29.90,12,4,22,0.00
2013-1-23,19,12,6,4,0,-4,84,60,41,30.31,30.22,11,2,15,0.00
2013-1-24,24,15,5,6,3,0,88,62,35,30.49,30.17,9,2,16,0.00
2013-1-25,22,15,8,15,6,-1,89,67,47,30.49,30.11,6,1,9,0.00
2013-1-26,27,16,5,11,8,2,92,71,48,30.44,30.11,12,1,15,0.01
2013-1-27,34,20,6,16,11,4,92,71,43,30.59,30.44,6,1,10,0.01
2013-1-28,32,28,16,31,25,13,97,91,81,30.54,30.05,3,0,6,0.00
2013-1-29,51,41,32,46,39,31,99,92,79,30.17,30.05,4,0,10,0.03
2013-1-30,65,48,40,61,48,39,100,97,83,30.08,29.35,9,1,18,0.23
2013-1-31,62,42,27,60,31,13,100,67,43,29.84,29.09,16,5,38,0.86
2013-2-1,29,26,21,18,14,9,83,61,44,30.29,29.83,11,3,19,0.00
2013-2-2,26,21,16,20,12,6,92,67,45,30.34,30.08,11,2,13,0.00
2013-2-3,29,23,16,22,19,15,94,85,69,30.08,29.84,7,1,12,0.05
2013-2-4,29,24,20,20,13,10,79,65,47,30.03,29.87,10,3,14,0.00
2013-2-5,30,27,23,28,24,18,95,86,78,30.00,29.92,6,0,7,0.01
2013-2-6,38,30,22,28,23,15,96,76,55,30.39,29.96,8,1,12,0.04
2013-2-7,32,26,16,21,16,12,88,67,49,30.53,30.34,8,1,11,0.00
2013-2-8,34,32,30,32,29,22,96,87,71,30.33,29.71,12,3,17,0.16
2013-2-9,32,27,20,30,17,7,97,69,46,30.41,29.81,12,3,26,0.09
2013-2-10,36,24,10,20,13,6,86,65,39,30.52,30.35,5,1,10,0.07
2013-2-11,40,34,28,40,32,20,99,93,72,30.35,29.69,3,0,7,0.13
2013-2-12,43,38,32,35,27,24,98,65,53,30.01,29.78,12,3,16,0.01
2013-2-13,42,32,22,31,26,20,96,79,57,29.99,29.70,4,0,9,0.00
2013-2-14,45,34,26,34,29,24,97,83,51,30.03,29.75,4,0,10,0.09
2013-2-15,54,39,25,35,30,24,98,73,44,30.05,29.94,9,1,12,0.07
2013-2-16,36,33,28,32,25,13,96,75,52,30.02,29.81,8,2,16,0.04
2013-2-17,31,25,18,13,8,2,54,47,36,30.09,29.76,19,5,29,0.00
2013-2-18,34,23,16,17,8,2,74,53,38,30.33,30.09,11,3,19,0.00
2013-2-19,42,31,19,39,27,15,98,85,60,30.23,29.73,9,1,17,0.36
2013-2-20,35,28,24,26,16,11,72,58,49,30.06,29.79,13,4,24,0.00
2013-2-21,34,27,22,17,15,12,70,60,49,30.34,30.04,13,4,25,0.00
2013-2-22,36,29,20,28,21,14,84,73,60,30.44,30.29,8,1,11,0.00
2013-2-23,42,38,33,41,36,28,97,95,84,30.29,29.85,6,1,13,0.10
2013-2-24,46,38,33,39,34,32,97,86,62,29.85,29.80,9,1,14,0.00
2013-2-25,43,36,26,30,27,24,92,71,58,30.27,30.17,10,1,11,0.00
2013-2-26,44,34,25,34,29,23,96,83,64,30.30,29.87,16,3,25,0.26
2013-2-27,47,42,35,45,39,33,97,89,77,29.87,29.54,15,4,27,0.35
2013-2-28,47,39,33,37,33,29,98,80,58,29.67,29.59,5,1,10,0.00
2013-3-1,45,37,27,32,29,26,97,74,57,29.83,29.66,9,2,16,0.00
2013-3-2,38,33,29,26,24,21,75,68,57,29.84,29.76,10,2,16,0.00
2013-3-3,36,31,27,21,20,17,71,63,53,29.84,29.74,10,3,20,0.00
2013-3-4,42,33,27,23,20,17,70,60,45,29.98,29.83,11,4,17,0.00
2013-3-5,48,37,30,28,25,22,73,61,45,30.06,29.97,11,2,12,0.00
2013-3-6,43,39,35,35,31,27,88,73,64,29.99,29.85,28,8,28,0.02
2013-3-7,43,38,32,33,29,25,93,71,56,30.12,29.98,13,4,18,0.01
2013-3-8,44,35,29,34,29,26,94,81,63,30.26,30.07,11,2,18,0.23
2013-3-9,58,42,29,28,24,18,86,54,21,30.35,30.24,9,1,12,0.00
2013-3-10,55,39,25,37,30,23,94,73,41,30.40,30.28,9,2,12,0.00
2013-3-11,57,45,35,48,40,32,98,85,56,30.35,30.08,8,1,11,0.00
2013-3-12,57,51,43,56,49,37,98,90,79,30.08,29.69,8,2,15,0.93
2013-3-13,48,41,31,37,30,24,94,67,43,29.94,29.83,9,2,14,0.00
2013-3-14,41,34,30,23,15,10,63,46,30,30.01,29.90,12,5,24,0.00
2013-3-15,46,37,27,32,22,12,65,54,43,30.03,29.75,9,2,13,0.00
2013-3-16,44,33,28,31,28,22,91,81,60,29.95,29.80,3,0,9,0.05
2013-3-17,37,32,27,30,22,18,94,68,48,30.34,29.96,6,1,13,0.01
2013-3-18,36,29,20,31,21,11,95,74,51,30.42,30.00,9,2,19,0.01
2013-3-19,48,38,32,37,32,19,97,81,47,29.98,29.72,12,2,21,0.53
2013-3-20,45,37,31,25,21,18,71,53,34,29.93,29.81,11,3,17,0.00
2013-3-21,38,32,28,29,19,13,91,59,36,29.87,29.67,12,2,12,0.00
2013-3-22,41,33,26,24,20,14,73,59,43,29.94,29.79,11,3,16,0.00
2013-3-23,45,37,31,24,21,19,66,53,38,29.98,29.88,9,3,17,0.01
2013-3-24,47,37,23,26,22,19,86,55,36,30.00,29.72,9,1,13,0.00
2013-3-25,38,36,33,35,31,26,95,82,62,29.73,29.51,7,1,13,0.20
2013-3-26,51,40,31,36,31,25,97,74,36,29.92,29.65,10,1,14,0.00
2013-3-27,52,39,27,34,28,24,92,68,35,30.05,29.91,11,2,13,0.00
2013-3-28,48,41,28,33,30,26,90,65,50,30.16,30.01,8,2,14,0.00
2013-3-29,53,44,30,33,30,26,86,59,40,30.19,30.11,9,2,14,0.00
2013-3-30,58,42,27,34,26,21,95,59,24,30.22,30.09,7,1,11,0.00
2013-3-31,57,42,28,43,34,24,97,75,39,30.16,29.73,12,1,16,0.24
2013-4-1,60,46,35,47,36,14,99,70,32,29.96,29.67,9,3,23,0.02
2013-4-2,43,36,27,20,15,12,73,44,30,30.13,29.96,12,3,21,0.00
2013-4-3,45,37,30,19,15,11,54,41,28,30.34,30.13,11,3,18,0.00
2013-4-4,53,40,24,26,21,14,77,48,32,30.43,30.10,9,1,15,0.00
2013-4-5,63,48,35,31,25,19,74,45,20,30.10,29.76,12,2,16,0.00
2013-4-6,53,41,32,25,18,11,69,41,19,30.33,30.05,9,2,14,0.00
2013-4-7,63,48,33,42,35,26,83,61,37,30.33,30.01,10,2,18,0.00
2013-4-8,77,60,40,50,44,38,95,62,28,30.10,29.98,6,1,12,0.00
2013-4-9,82,67,49,55,46,37,92,54,20,30.00,29.91,13,2,22,0.00
2013-4-10,86,65,53,60,54,47,97,71,39,29.95,29.81,13,1,22,0.47
2013-4-11,60,56,47,58,52,42,99,88,73,30.02,29.80,12,2,15,0.01
2013-4-12,48,43,41,43,41,40,97,91,78,29.99,29.74,12,3,19,0.48
2013-4-13,58,48,37,43,38,34,98,72,45,30.00,29.78,7,1,12,0.00
2013-4-14,59,49,37,41,34,30,94,60,34,30.22,30.00,9,2,15,0.00
2013-4-15,60,50,41,40,34,29,72,55,45,30.38,30.22,9,2,12,0.00
2013-4-16,70,54,46,57,46,37,88,76,59,30.38,30.22,5,1,14,0.00
2013-4-17,72,61,49,57,39,31,92,48,23,30.30,30.14,14,2,16,0.00
2013-4-18,58,51,42,52,46,39,95,82,63,30.34,30.10,10,2,14,0.01
2013-4-19,77,65,53,66,60,51,97,86,65,30.10,29.62,9,2,19,0.84
2013-4-20,57,50,44,51,36,25,94,60,37,30.34,29.72,16,3,20,0.12
2013-4-21,54,44,31,30,24,20,74,48,30,30.64,30.35,13,2,15,0.00
2013-4-22,53,43,31,39,32,28,91,67,47,30.66,30.50,17,3,20,0.00
2013-4-23,50,44,39,42,37,32,91,77,70,30.50,30.16,7,2,11,0.00
2013-4-24,73,55,34,55,46,33,98,75,52,30.16,29.82,7,1,14,0.00
2013-4-25,64,53,40,55,33,26,85,50,24,30.29,29.88,15,2,18,0.00
2013-4-26,65,50,35,38,32,25,91,56,23,30.44,30.29,8,1,16,0.00
2013-4-27,70,53,34,39,34,31,91,54,27,30.46,30.28,5,1,16,0.00
2013-4-28,72,56,37,45,39,34,92,56,34,30.34,30.19,5,1,10,0.00
2013-4-29,55,51,50,51,49,42,97,92,62,30.25,30.17,8,1,11,0.17
2013-4-30,65,55,42,51,42,23,97,67,24,30.36,30.21,11,2,15,0.01
2013-5-1,68,52,35,44,37,29,91,61,24,30.50,30.36,11,2,16,0.00
2013-5-2,73,56,37,50,43,36,98,66,33,30.49,30.34,6,1,10,0.00
2013-5-3,66,55,43,44,40,34,89,60,36,30.46,30.35,9,2,16,0.00
2013-5-4,70,54,38,47,42,37,97,68,37,30.40,30.22,9,2,14,0.00
2013-5-5,65,52,40,47,41,38,94,70,38,30.31,30.22,10,2,14,0.00
2013-5-6,68,55,39,55,48,37,96,79,59,30.28,30.15,7,1,14,0.00
2013-5-7,73,60,45,60,53,44,98,80,62,30.19,30.08,9,2,16,0.00
2013-5-8,68,61,55,64,59,54,99,93,78,30.10,29.95,6,1,14,1.91
2013-5-9,69,59,53,59,56,53,99,89,69,30.00,29.92,2,0,6,0.12
2013-5-10,80,65,49,63,57,48,100,78,47,30.03,29.90,8,0,8,0.08
2013-5-11,70,64,58,66,62,57,99,95,83,29.94,29.72,4,0,7,0.97
2013-5-12,65,58,48,58,43,29,99,61,31,29.98,29.70,8,2,16,0.00
2013-5-13,54,47,36,37,32,28,92,58,38,30.15,29.98,6,1,13,0.00
2013-5-14,62,47,31,36,31,24,97,60,25,30.18,30.05,5,1,10,0.00
2013-5-15,74,58,39,60,49,35,90,73,55,30.10,29.71,5,1,10,0.00
2013-5-16,82,66,52,63,55,46,99,73,30,29.87,29.73,5,0,9,0.00
2013-5-17,73,60,47,50,46,41,90,62,32,30.22,29.87,7,1,12,0.00
2013-5-18,63,56,48,57,52,45,91,84,70,30.31,30.22,6,0,8,0.02
2013-5-19,59,57,55,58,56,54,98,97,90,30.31,30.18,5,1,11,0.16
2013-5-20,78,66,57,69,62,56,100,89,72,30.20,29.98,3,0,5,0.00
2013-5-21,87,72,58,73,66,57,100,85,60,30.00,29.86,5,0,9,0.00
2013-5-22,86,72,63,75,68,63,100,88,63,29.93,29.82,5,1,8,0.00
2013-5-23,75,69,64,72,68,62,100,97,82,29.90,29.76,6,0,9,1.03
2013-5-24,63,53,43,63,51,41,100,93,77,30.03,29.72,11,2,18,0.23
2013-5-25,57,50,43,45,40,35,96,72,49,30.07,29.97,12,2,24,0.36
2013-5-26,68,56,44,42,39,34,84,55,31,30.24,30.04,13,2,15,0.00
2013-5-27,75,57,37,48,42,35,98,63,29,30.29,30.16,6,1,9,0.00
2013-5-28,59,54,46,57,52,45,99,94,80,30.25,30.14,2,0,6,0.29
2013-5-29,86,68,56,72,64,56,100,88,59,30.15,30.02,2,0,7,0.02
2013-5-30,92,76,61,72,66,61,100,75,43,30.16,30.07,3,0,7,0.00
2013-5-31,92,77,63,74,66,62,100,74,42,30.14,30.00,3,0,7,0.00
2013-6-1,91,76,61,73,68,60,100,77,52,30.04,29.90,4,0,7,0.00
2013-6-2,86,76,65,73,69,65,100,80,63,29.92,29.78,5,1,9,0.00
2013-6-3,80,71,65,70,66,53,99,84,61,29.91,29.81,4,0,8,0.26
2013-6-4,76,64,52,52,48,43,85,58,34,30.14,29.91,9,1,11,0.00
2013-6-5,75,62,46,54,48,42,89,63,39,30.23,30.11,5,1,9,0.00
2013-6-6,70,60,51,61,56,49,98,86,57,30.16,30.00,8,1,9,0.24
2013-6-7,63,61,59,62,60,58,98,97,96,30.00,29.64,6,1,17,2.33
2013-6-8,76,66,57,66,62,56,100,88,71,30.08,29.63,8,0,15,0.13
2013-6-9,82,68,54,66,60,53,100,78,46,30.20,30.08,5,0,7,0.01
2013-6-10,68,65,61,68,64,60,100,96,91,30.17,29.80,11,1,16,1.63
2013-6-11,78,72,65,69,66,62,100,84,66,29.80,29.66,4,1,14,0.01
2013-6-12,80,70,60,62,59,55,90,69,44,29.86,29.75,8,1,13,0.00
2013-6-13,63,61,56,62,59,55,98,95,90,29.86,29.45,7,1,14,1.09
2013-6-14,75,60,53,63,56,50,97,87,59,29.93,29.56,8,1,15,0.28
2013-6-15,81,66,52,62,57,51,100,77,44,30.05,29.94,6,0,9,0.01
2013-6-16,80,67,54,67,60,53,99,82,57,30.02,29.81,4,0,11,0.00
2013-6-17,84,70,60,71,65,59,100,85,57,29.94,29.85,3,0,10,0.14
2013-6-18,80,69,60,72,66,60,100,92,71,29.92,29.82,3,0,13,0.25
2013-6-19,77,66,56,61,55,49,98,72,40,30.18,29.90,7,1,12,0.00
2013-6-20,81,67,52,64,58,50,99,76,47,30.28,30.18,4,0,6,0.00
2013-6-21,83,69,53,64,59,52,98,73,47,30.32,30.24,3,0,7,0.00
2013-6-22,85,70,54,70,63,53,98,79,56,30.28,30.12,3,0,9,0.00
2013-6-23,87,74,60,73,68,60,99,82,58,30.21,30.07,3,0,7,0.00
2013-6-24,92,76,67,74,70,63,100,83,50,30.09,29.97,4,0,9,0.12
2013-6-25,90,76,63,76,69,62,100,83,55,30.03,29.83,4,0,9,0.02
2013-6-26,87,76,69,72,69,65,95,78,59,29.88,29.80,4,0,7,0.00
2013-6-27,88,76,66,74,70,65,99,84,61,29.84,29.55,3,0,15,1.79
2013-6-28,85,76,67,73,70,66,99,85,61,29.57,29.48,3,0,9,0.14
2013-6-29,85,73,64,71,67,63,100,83,55,29.71,29.50,4,0,8,0.00
2013-6-30,83,73,64,76,70,64,98,90,77,29.91,29.71,3,0,7,0.02
2013-7-1,76,74,70,75,72,70,100,96,89,30.04,29.89,0,0,0,1.75
2013-7-2,84,76,72,76,73,70,98,90,72,30.19,30.04,0,0,0,0.01
2013-7-3,85,76,70,78,73,69,99,90,73,30.25,30.17,3,0,5,0.26
2013-7-4,88,78,70,77,73,70,100,86,66,30.27,30.16,4,0,8,0.00
2013-7-5,90,80,69,77,73,68,100,82,56,30.23,30.10,4,0,8,0.00
2013-7-6,92,81,70,77,74,70,99,81,56,30.16,30.04,2,0,6,0.00
2013-7-7,92,80,70,79,74,69,100,83,61,30.09,29.95,3,0,10,0.23
2013-7-8,87,76,67,74,70,66,100,84,62,30.07,29.99,0,0,1,0.01
2013-7-9,86,75,65,75,70,65,99,85,66,30.09,30.00,2,0,3,0.06
2013-7-11,75,75,75,62,62,62,65,65,65,29.93,29.93,0,0,1,0.00
2013-7-13,83,76,74,76,74,74,98,94,80,30.30,30.22,7,1,10,0.07
2013-7-14,90,80,73,78,74,72,100,86,59,30.36,30.25,0,0,0,0.00
2013-7-15,93,81,69,81,74,68,100,82,59,30.28,30.15,3,0,8,0.00
2013-7-16,93,80,68,77,72,67,99,77,47,30.23,30.14,4,0,10,0.00
2013-7-17,94,81,69,78,72,68,98,77,46,30.21,30.07,4,0,7,0.00
2013-7-18,96,83,71,80,76,70,99,80,54,30.09,29.97,0,0,1,0.00
2013-7-19,95,83,72,81,76,72,99,82,57,29.99,29.81,4,0,10,0.02
2013-7-20,91,79,71,78,74,70,99,84,58,29.86,29.75,6,0,12,0.05
2013-7-21,87,78,70,73,71,68,100,81,57,29.97,29.85,0,0,6,0.01
2013-7-22,85,75,69,77,72,67,99,89,72,29.97,29.80,2,0,10,0.15
2013-7-23,84,75,70,77,73,69,100,92,74,29.80,29.59,3,0,12,1.24
2013-7-24,78,72,64,70,64,54,99,80,60,29.96,29.65,9,0,12,0.00
2013-7-25,70,64,57,62,57,53,94,80,69,30.07,29.95,3,0,11,0.00
2013-7-26,82,69,59,66,61,58,96,78,48,30.07,30.01,0,0,1,0.00
2013-7-27,84,70,57,70,64,56,100,81,58,30.07,29.94,0,0,0,0.01
2013-7-28,76,69,64,72,67,62,99,95,84,30.00,29.90,0,0,4,0.96
2013-7-29,81,71,60,68,63,56,100,79,43,30.14,29.97,2,0,8,0.01
2013-7-30,80,67,55,65,60,54,99,79,52,30.21,30.13,4,0,8,0.00
2013-7-31,81,69,56,68,62,55,99,80,51,30.19,30.05,0,0,0,0.01
2013-8-1,68,66,64,68,66,63,99,98,95,30.05,29.84,3,0,8,0.37
2013-8-2,83,71,61,70,65,61,100,83,53,29.94,29.83,4,0,7,0.01
2013-8-3,75,67,61,69,64,59,98,93,78,29.94,29.88,0,0,1,0.09
2013-8-4,78,67,56,63,59,55,99,79,48,30.02,29.89,11,1,14,0.03
2013-8-5,78,64,51,63,55,50,99,76,41,30.10,30.01,0,0,1,0.01
2013-8-6,80,67,53,65,60,52,99,78,50,30.14,30.06,0,0,0,0.00
2013-8-7,76,70,64,70,66,62,97,90,77,30.15,30.06,0,0,8,0.02
2013-8-8,81,73,68,77,71,67,100,95,80,30.07,29.99,3,0,8,0.12
2013-8-9,85,75,71,77,74,70,100,95,77,30.01,29.82,0,0,6,0.15
2013-8-10,83,72,64,71,67,62,100,85,57,30.07,29.90,0,0,0,0.01
2013-8-11,80,68,56,69,62,55,100,82,54,30.15,30.03,0,0,0,0.11
2013-8-12,83,71,65,69,66,61,100,84,51,30.06,29.94,0,0,1,0.15
2013-8-13,80,70,65,72,67,64,100,93,72,29.95,29.71,1,0,8,0.94
2013-8-14,72,63,54,64,55,51,98,76,54,30.09,29.80,8,1,15,0.01
2013-8-15,76,62,48,59,54,48,99,78,44,30.18,30.09,0,0,0,0.00
2013-8-16,79,65,51,62,56,50,99,76,44,30.23,30.16,1,0,2,0.00
2013-8-17,81,67,53,67,59,53,99,79,44,30.30,30.23,0,0,0,0.00
2013-8-18,72,66,60,67,62,59,97,89,70,30.28,30.16,0,0,0,0.02
2013-8-19,74,67,59,68,63,58,100,88,63,30.17,30.06,0,0,0,0.00
2013-8-20,86,72,59,71,66,58,100,83,54,30.16,30.08,2,0,4,0.00
2013-8-21,86,73,60,71,65,59,100,81,47,30.21,30.08,0,0,1,0.01
2013-8-22,79,70,66,75,69,66,100,96,83,30.09,29.90,0,0,1,1.53
2013-8-23,78,70,63,68,64,58,100,84,52,30.13,29.91,5,0,9,0.00
2013-8-24,78,66,56,61,56,53,97,73,46,30.38,30.13,6,1,10,0.00
2013-8-25,80,65,52,63,57,51,99,80,47,30.43,30.26,3,0,6,0.00
2013-8-26,81,69,59,72,64,58,98,87,65,30.27,29.95,2,0,6,0.02
2013-8-27,86,75,67,74,69,66,99,84,60,29.94,29.87,5,0,9,0.01
2013-8-28,74,71,66,73,70,66,100,98,91,29.91,29.85,1,0,1,0.38
2013-8-29,79,71,65,73,69,65,100,94,79,30.05,29.90,0,0,1,0.00
2013-8-30,80,72,67,74,69,66,98,90,75,30.04,29.88,0,0,0,0.00
2013-8-31,85,76,69,78,73,68,99,92,76,29.89,29.80,2,0,5,0.02
2013-9-1,84,76,70,77,73,70,100,92,77,29.86,29.79,1,0,9,0.02
2013-9-2,75,71,69,74,71,68,100,98,92,29.82,29.72,0,0,1,1.15
2013-9-3,79,71,59,70,65,58,100,84,55,29.93,29.73,4,0,12,0.00
2013-9-4,79,66,55,65,60,54,100,82,53,30.04,29.92,4,0,8,0.00
2013-9-5,75,64,53,64,56,47,100,79,40,30.18,29.97,10,1,12,0.00
2013-9-6,69,57,46,52,47,44,97,74,42,30.29,30.17,3,0,11,0.00
2013-9-7,76,60,45,63,52,44,99,78,43,30.17,29.93,0,0,1,0.00
2013-9-8,79,66,56,68,58,48,99,77,46,30.10,29.86,6,0,15,0.00
2013-9-9,73,61,46,64,54,44,97,79,55,30.26,30.11,6,0,8,0.00
2013-9-10,85,73,64,77,69,62,98,89,74,30.19,30.07,0,0,1,0.00
2013-9-11,92,78,67,80,74,67,100,88,65,30.14,29.99,5,0,7,0.00
2013-9-12,83,73,67,78,71,66,100,95,77,30.01,29.71,3,0,14,0.67
2013-9-13,74,65,54,67,60,51,99,85,62,29.90,29.67,7,0,13,0.06
2013-9-14,63,55,45,51,48,44,96,78,62,30.18,29.90,10,1,13,0.00
2013-9-15,70,55,40,58,49,40,99,82,50,30.25,30.11,3,0,7,0.00
2013-9-16,69,59,53,59,55,49,99,86,61,30.28,30.07,5,0,11,0.07
2013-9-17,64,52,40,49,44,39,98,74,46,30.47,30.28,7,1,12,0.00
2013-9-18,68,53,39,53,46,39,99,81,48,30.39,30.22,3,0,6,0.00
2013-9-19,73,56,41,58,50,40,99,82,51,30.23,30.10,2,0,6,0.00
2013-9-20,77,60,46,64,55,46,100,85,56,30.12,30.00,0,0,0,0.01
2013-9-21,77,63,50,66,58,50,100,86,50,30.04,29.69,1,0,7,0.57
2013-9-22,66,60,49,63,52,44,98,78,52,29.96,29.69,10,1,14,0.16
2013-9-23,63,53,42,48,44,40,96,73,53,30.08,29.96,5,1,14,0.00
2013-9-24,71,54,39,52,46,38,97,76,44,30.10,29.92,4,0,9,0.00
2013-9-25,70,55,41,54,48,40,99,80,46,30.00,29.90,0,0,0,0.00
2013-9-26,72,57,45,60,53,44,100,88,63,30.13,29.97,0,0,2,0.01
2013-9-27,69,57,46,58,52,46,99,85,58,30.30,30.13,0,0,0,0.00
2013-9-28,71,59,50,58,53,49,98,82,53,30.35,30.26,5,0,8,0.00
2013-9-29,70,57,46,59,52,45,100,86,60,30.26,30.09,0,0,0,0.00
2013-9-30,73,56,45,58,51,44,100,84,51,30.12,30.00,2,0,6,0.01
2013-10-1,78,61,47,64,55,46,100,84,58,30.05,29.93,5,0,7,0.01
2013-10-2,82,64,50,66,58,50,100,83,54,30.05,29.95,0,0,2,0.00
2013-10-3,78,64,52,66,59,49,100,85,38,30.15,30.05,0,0,1,0.00
2013-10-4,84,68,56,69,63,56,100,86,57,30.09,29.99,0,0,0,0.00
2013-10-5,80,70,61,70,66,61,100,86,68,30.10,30.02,0,0,0,0.00
2013-10-6,70,66,64,67,65,63,98,96,92,30.10,30.02,7,1,13,0.05
2013-10-7,76,65,55,72,63,48,98,94,74,30.02,29.75,8,1,19,0.35
2013-10-8,65,54,43,52,47,42,100,82,52,30.35,30.03,8,1,14,0.01
2013-10-9,60,51,42,49,46,41,97,82,62,30.42,30.31,10,1,14,0.00
2013-10-10,60,55,50,56,52,46,97,88,78,30.31,30.09,7,1,9,0.11
2013-10-11,64,61,57,61,58,55,96,90,83,30.10,30.02,6,1,12,0.11
2013-10-12,72,63,49,58,51,41,92,68,36,30.28,30.08,12,2,16,0.01
2013-10-13,64,59,50,54,52,49,95,79,65,30.40,30.28,13,2,15,0.00
2013-10-14,67,54,44,54,49,43,99,84,60,30.39,30.25,3,0,7,0.00
2013-10-15,71,54,44,59,47,40,100,80,36,30.29,30.14,7,1,10,0.00
2013-10-16,66,57,45,59,53,43,97,89,73,30.15,29.94,3,0,5,0.00
2013-10-17,72,64,58,63,61,56,99,90,70,29.94,29.71,2,0,6,0.03
2013-10-18,65,57,42,63,47,40,97,72,51,30.02,29.71,8,2,15,0.00
2013-10-19,61,50,38,52,45,37,99,85,57,30.02,29.79,3,0,6,0.06
2013-10-20,61,50,38,50,41,37,98,74,41,30.10,29.80,12,1,19,0.00
2013-10-21,66,48,34,48,39,33,99,76,40,30.18,30.02,5,0,10,0.01
2013-10-22,61,48,38,53,43,35,99,84,62,30.01,29.80,3,0,9,0.00
2013-10-23,55,43,34,43,37,33,98,81,57,29.85,29.67,4,0,10,0.00
2013-10-24,52,42,32,37,32,29,97,71,42,30.07,29.82,9,1,14,0.01
2013-10-25,53,43,32,36,33,30,92,69,46,30.27,30.06,7,1,18,0.00
2013-10-26,54,40,26,37,31,25,98,75,43,30.27,29.93,10,1,16,0.00
2013-10-27,56,46,33,38,34,31,91,65,45,30.17,29.90,6,1,13,0.00
2013-10-28,60,42,28,39,34,27,98,76,41,30.35,30.17,5,0,11,0.00
2013-10-29,57,43,33,39,35,32,95,76,43,30.45,30.35,4,0,7,0.00
2013-10-30,58,47,33,51,43,31,95,85,76,30.40,30.21,2,0,4,0.00
2013-10-31,64,56,49,60,54,47,96,93,83,30.26,29.82,4,0,7,0.05
2013-11-1,69,61,47,64,57,46,97,86,60,29.82,29.57,9,1,18,0.24
2013-11-2,66,52,40,51,46,38,99,81,52,29.83,29.66,6,0,10,0.00
2013-11-3,49,42,32,43,31,20,98,68,44,30.50,29.83,12,2,16,0.00
2013-11-4,45,34,23,26,21,16,90,63,32,30.70,30.50,7,1,14,0.00
2013-11-5,55,43,28,42,35,24,90,76,58,30.69,30.51,5,0,9,0.00
2013-11-6,63,52,41,50,46,39,94,81,59,30.53,30.10,7,0,11,0.00
2013-11-7,58,48,34,57,46,32,98,90,70,30.10,29.80,6,0,21,0.11
2013-11-8,47,40,33,37,31,28,96,71,51,30.27,29.99,8,2,16,0.02
2013-11-9,49,37,26,34,29,24,97,75,46,30.34,30.03,7,0,8,0.00
2013-11-10,56,44,30,40,33,29,98,69,48,30.11,29.89,10,2,21,0.00
2013-11-11,53,46,37,37,32,27,72,58,47,30.25,29.99,7,1,11,0.00
2013-11-12,49,35,26,39,24,17,89,65,52,30.35,29.96,13,2,18,0.02
2013-11-13,38,29,22,18,17,13,87,62,39,30.43,30.33,10,2,24,0.00
2013-11-14,51,34,21,23,20,18,91,61,27,30.32,30.21,8,1,14,0.00
2013-11-15,56,37,24,32,26,21,91,68,31,30.29,30.18,4,0,6,0.00
2013-11-16,59,46,33,47,41,29,98,84,58,30.36,30.28,3,0,7,0.06
2013-11-17,60,54,47,58,52,46,99,95,89,30.29,29.79,6,1,10,0.03
2013-11-18,63,57,48,61,42,29,97,62,37,29.85,29.63,9,2,14,0.19
2013-11-19,48,41,32,31,26,22,69,54,48,30.39,29.85,11,3,20,0.00
2013-11-20,45,34,24,22,18,9,80,55,23,30.65,30.39,9,2,18,0.00
2013-11-21,50,37,21,39,29,17,89,73,58,30.65,30.42,8,1,11,0.00
2013-11-22,55,48,44,50,46,39,97,89,81,30.42,29.97,4,0,8,0.07
2013-11-23,52,39,28,48,27,8,89,62,42,30.12,29.96,10,3,19,0.00
2013-11-24,28,24,21,12,5,3,53,45,38,30.45,30.10,16,4,22,0.00
2013-11-25,35,27,20,17,14,8,75,57,46,30.53,30.37,5,1,9,0.00
2013-11-26,45,34,30,44,27,16,97,77,55,30.37,29.74,18,1,18,0.69
2013-11-27,56,42,32,55,39,21,99,89,63,29.83,29.42,11,2,21,1.21
2013-11-28,34,29,24,24,18,13,82,62,43,30.51,29.83,8,2,20,0.00
2013-11-29,36,29,22,24,21,17,91,75,55,30.77,30.50,6,1,11,0.00
2013-11-30,34,27,15,29,20,13,90,76,55,30.79,30.42,7,1,10,0.00
2013-12-1,46,35,26,33,29,24,96,79,57,30.42,30.06,4,0,6,0.00
2013-12-2,47,37,28,34,31,27,94,80,57,30.06,29.91,1,0,4,0.00
2013-12-3,52,36,28,38,32,26,96,84,54,30.05,29.91,3,0,6,0.00
2013-12-4,49,40,29,42,36,28,97,86,72,30.15,30.04,3,0,7,0.00
2013-12-5,53,49,45,52,48,42,99,98,88,30.14,29.96,1,0,7,0.04
2013-12-6,54,44,36,54,42,34,100,94,86,30.20,29.89,10,1,18,0.87
2013-12-7,37,33,25,34,28,20,95,84,68,30.56,30.13,6,1,14,0.03
2013-12-8,31,27,22,28,21,17,95,78,62,30.62,30.39,4,0,9,0.00
2013-12-9,35,33,29,35,32,28,98,96,94,30.39,30.02,6,1,12,0.33
2013-12-10,33,30,25,31,28,18,98,91,74,30.18,29.94,5,0,9,0.01
2013-12-11,32,25,17,20,17,14,90,74,53,30.38,30.18,8,1,11,0.00
2013-12-12,26,22,12,19,12,7,84,65,48,30.41,30.22,7,1,11,0.00
2013-12-13,33,22,8,20,14,5,91,75,54,30.37,30.19,8,1,14,0.00
2013-12-14,29,24,20,28,21,18,95,86,76,30.50,29.80,9,2,17,0.00
2013-12-15,37,31,25,33,27,22,96,85,67,29.89,29.60,9,2,18,0.01
2013-12-16,31,23,11,23,13,8,89,66,46,30.27,29.88,10,2,13,0.00
2013-12-17,26,19,13,24,16,10,93,88,77,30.26,29.99,4,0,6,0.00
2013-12-18,35,23,10,25,18,8,95,82,60,30.23,29.99,8,1,15,0.00
2013-12-19,42,26,13,30,21,12,96,83,58,30.24,30.07,4,0,5,0.08
2013-12-20,48,35,26,35,30,24,96,83,56,30.15,30.00,3,0,5,0.19
2013-12-21,56,40,31,48,37,30,97,90,72,30.05,29.94,2,0,5,0.01
2013-12-22,66,55,38,62,53,37,100,94,83,29.98,29.83,13,1,13,0.03
2013-12-23,57,49,38,57,48,30,100,95,71,30.20,29.94,7,1,19,0.66
2013-12-24,38,32,23,30,23,13,91,69,59,30.41,30.15,9,2,15,0.00
2013-12-25,26,22,16,17,11,8,74,64,52,30.58,30.42,6,1,13,0.00
2013-12-26,33,25,17,28,21,14,93,85,75,30.46,30.22,5,0,10,0.01
2013-12-27,39,27,18,25,21,16,96,81,53,30.41,30.31,7,1,9,0.01
2013-12-28,53,32,19,34,25,17,97,80,42,30.33,30.11,6,1,12,0.00
2013-12-29,42,36,29,41,34,27,98,94,91,30.12,29.49,8,1,15,0.90
2013-12-30,43,33,21,38,27,13,98,78,60,30.22,29.76,9,2,13,0.00
2013-12-31,30,24,15,26,15,11,87,70,56,30.34,30.09,9,1,15,0.00
2014-1-1,32,26,18,22,18,11,85,72,61,30.44,30.26,3,0,7,0.00
2014-1-2,29,25,15,23,20,12,92,83,70,30.26,29.72,9,2,16,0.00